Location: Malvern Link
(52.1333°N, 2.3000°W)
Time: 01:19:14
(UTC+00:00)

Meteor 1-22 Rocket - Pass Details

Date: 18 September 2020
Orbit: 786 x 941 km, 81.2° (Epoch: 23 October)

Event Time Altitude Azimuth Distance (km) Brightness Sun altitude
Exits shadow 20:43:04 42° 150° (SSE) 1,270 4.7 -22.0°
Maximum altitude 20:44:49 58° 96° (E) 1,055 4.3 -22.2°
Drops below altitude 10° 20:50:45 10° 19° (NNE) 2,646 7.0 -23.0°
Sets 20:53:18 0° 16° (NNE) 3,606 7.7 -23.3°
